Location: Krakow
(50.0830°N, 19.9170°E)
Time: 13:26:58
(UTC+01:00)

Vanguard 2 - Pass Details

Date: 18 December 2023
Orbit: 553 x 2919 km, 32.9° (Epoch: 24 February)

Event Time Altitude Azimuth Distance (km) Brightness Sun altitude
Rises 19:42:33 0° 257° (WSW) 6,154 13.0 -37.7°
Reaches altitude 10° 19:46:39 10° 250° (WSW) 5,369 12.4 -38.3°
Maximum altitude 20:01:36 41° 189° (S) 3,768 10.8 -40.7°
Enters shadow 20:04:56 38° 168° (SSE) 3,866 10.7 -41.2°
